Location: Bernay
(48.6766°N, 2.9386°E)
Time: 17:30:44
(UTC+00:00)

SL-16 R/B - Pass Details

Date: 12 January 2026
Orbit: 985 x 1007 km, 99.8° (Epoch: 17 February)

Event Time Altitude Azimuth Distance (km) Brightness Sun altitude
Rises 17:15:09 0° 13° (NNE) 3,709 5.2 -9.5°
Reaches altitude 10° 17:17:39 10° 10° (N) 2,755 4.6 -9.9°
Maximum altitude 17:23:42 59° 293° (WNW) 1,129 3.1 -10.8°
Drops below altitude 10° 17:29:42 10° 215° (SW) 2,737 5.7 -11.8°
Sets 17:32:11 0° 212° (SSW) 3,682 6.4 -12.1°
